User: anonymous   Login
Location: Appeville
(49.3218°N, 1.3427°W)
Time: 06:39:47
(UTC+00:00)
Language:

Cosmos 2082 Rocket - Orbit

View from above orbital plane
View from above orbital plane
View from above satellite
View from above satellite

Ground track
Ground track

The orbit data is extracted from the following two-line orbital elements,

1 20625U 90046B   20049.93508524 -.00000264 +00000-0 -11236-3 0  9995
2 20625 070.9970 259.0650 0012122 058.1906 302.0395 14.14651916535714
Epoch (UTC): 18 February 2020 22:26:31
Eccentricity: 0.0012122
inclination: 70.9970°
perigee height: 835 km
apogee height: 852 km
right ascension of ascending node: 259.0650°
argument of perigee: 58.1906°
revolutions per day: 14.14651916
mean anomaly at epoch: 302.0395°
orbit number at epoch: 53571

The dashed part of the orbit path shows where the satellite is in the earth's shadow,  

DLR